sat.trackr.live / text

‹ back to catalog

STARLINK-35473

NORAD 65937 · 2025-225AD

PAYLOAD ACTIVE UNKNOWN

§ Identity

Operator
Country
US
Launch date
2025-10-08
Launch site
AFWTR
Launch vehicle
Mass (kg)
RCS (m²)

Purposes: comms

External: N2YO · Heavens-Above · Gunter

§ Orbital elements

Epoch: 2026-05-25T02:22:59.496672Z

Period
94.11 min
Inclination
53.1576°
Eccentricity
0.0001122
Mean motion
15.30204435 rev/d
Perigee alt
474.4 km
Apogee alt
476.0 km
Semi-major
6,853.3 km
B*
3.4717e-4
RAAN
170.9845°
Arg perigee
73.7729°
Mean anomaly
286.3395°
Rev number
3,521

§ Raw data

STARLINK-354731 65937U 25225AD  26145.09929973  .00009938  00000+0  34717-3 0  99952 65937  53.1576 170.9845 0001122  73.7729 286.3395 15.30204435 35218

JSON: /api/v1/satellites/65937 · /tle

For live sub-satellite position, see the globe view (requires WebGL).

§ Visibility from observer

Set your observer location to see the next 7 days of passes ≥ 10°. The values pass through the URL so the page stays shareable.

No JS? Fill the form by hand. The geolocation button needs JavaScript.